User: anonymous   Login
Location: Caltech
(34.1382°N, 118.1253°W)
Time: 04:39:13
(UTC-08:00)
Language:

ERBS - Orbit

View from above orbital plane
View from above orbital plane
View from above satellite
View from above satellite

Ground track
Ground track

The orbit data is extracted from the following two-line orbital elements,

1 15354U 84108B   16345.15194210  .00004036  00000-0  10095-3 0  9992
2 15354  57.0084 231.4643 0017128 100.9538 259.3444 15.42364345769024
Epoch (UTC): 10 December 2016 03:38:47
Eccentricity: 0.0017128
inclination: 57.0084°
perigee height: 427 km
apogee height: 451 km
right ascension of ascending node: 231.4643°
argument of perigee: 100.9538°
revolutions per day: 15.42364345
mean anomaly at epoch: 259.3444°
orbit number at epoch: 76902

The dashed part of the orbit path shows where the satellite is in the earth's shadow,  

DLR